QPF
0.02 0.07 0.01 0.00 0.00 0.00 0.00 0.00 0.00 0.00 0.00 0.00 0.00 0.05 0.13 0.07 0.00 0.01 0.01 0.03 0.07 0.11 0.23 0.21 0.05 0.08 0.05 0.02 0.00 0.00 0.00 0.00 0.00
0.00 0.04 0.06 0.01 0.00 0.00 0.01 0.00 0.00 0.00 0.00 0.00 0.01 0.02 0.07 0.02 0.00 0.01 0.03 0.09 0.18 0.18 0.18 0.04 0.01 0.13 0.09 0.00 0.00 0.00 0.00 0.00 0.00
0.00 0.01 0.11 0.10 0.01 0.01 0.02 0.02 0.02 0.02 0.00 0.02 0.03 0.02 0.01 0.02 0.03 0.04 0.06 0.08 0.10 0.07 0.03 0.00 0.00 0.03 0.03 0.00 0.00 0.00 0.00 0.00 0.00
0.00 0.00 0.02 0.12 0.04 0.01 0.01 0.01 0.03 0.02 0.01 0.03 0.10 0.10 0.04 0.03 0.02 0.04 0.06 0.04 0.01 0.00 0.00 0.00 0.00 0.00 0.02 0.00 0.00 0.00 0.00 0.00 0.00
0.00 0.00 0.00 0.02 0.06 0.02 0.01 0.00 0.01 0.02 0.03 0.02 0.05 0.09 0.12 0.09 0.11 0.04 0.02 0.01 0.02 0.00 0.00 0.00 0.00 0.00 0.01 0.00 0.00 0.00 0.00 0.00 0.00
0.01 0.02 0.03 0.02 0.02 0.04 0.03 0.01 0.01 0.00 0.02 0.02 0.09 0.08 0.01 0.03 0.09 0.10 0.06 0.01 0.06 0.01 0.00 0.00 0.00 0.00 0.01 0.00 0.00 0.01 0.01 0.00 0.00
0.00 0.00 0.02 0.01 0.02 0.10 0.13 0.08 0.05 0.02 0.00 0.00 0.00 0.02 0.03 0.05 0.05 0.06 0.01 0.06 0.15 0.06 0.01 0.00 0.00 0.00 0.01 0.02 0.01 0.01 0.04 0.02 0.00
0.00 0.00 0.01 0.06 0.08 0.16 0.20 0.16 0.13 0.04 0.01 0.01 0.01 0.00 0.03 0.06 0.08 0.06 0.00 0.05 0.08 0.05 0.06 0.05 0.00 0.00 0.01 0.03 0.01 0.03 0.03 0.05 0.01
0.00 0.00 0.01 0.05 0.09 0.11 0.13 0.16 0.23 0.18 0.09 0.06 0.06 0.08 0.06 0.04 0.08 0.04 0.06 0.03 0.06 0.05 0.02 0.02 0.01 0.00 0.00 0.02 0.02 0.05 0.04 0.03 0.00
0.00 0.00 0.00 0.01 0.03 0.05 0.08 0.07 0.05 0.08 0.12 0.11 0.07 0.08 0.16 0.19 0.17 0.07 0.12 0.03 0.03 0.05 0.04 0.03 0.02 0.01 0.00 0.00 0.02 0.04 0.03 0.03 0.02
0.00 0.00 0.00 0.00 0.00 0.03 0.09 0.09 0.05 0.02 0.04 0.04 0.08 0.10 0.12 0.20 0.32 0.19 0.06 0.03 0.02 0.03 0.04 0.04 0.03 0.04 0.03 0.04 0.03 0.07 0.06 0.04 0.02
0.00 0.00 0.00 0.00 0.00 0.01 0.02 0.05 0.10 0.14 0.14 0.10 0.10 0.13 0.13 0.14 0.27 0.60 0.53 0.16 0.06 0.04 0.04 0.03 0.06 0.05 0.04 0.06 0.09 0.09 0.08 0.05 0.02
0.00 0.00 0.00 0.00 0.00 0.00 0.00 0.00 0.00 0.01 0.08 0.14 0.19 0.21 0.21 0.12 0.06 0.15 0.40 0.51 0.23 0.11 0.09 0.07 0.06 0.06 0.05 0.03 0.03 0.06 0.07 0.08 0.04
0.00 0.00 0.00 0.00 0.00 0.00 0.00 0.00 0.00 0.00 0.00 0.00 0.02 0.04 0.09 0.25 0.35 0.32 0.26 0.18 0.12 0.04 0.03 0.03 0.02 0.01 0.00 0.00 0.00 0.01 0.06 0.08 0.07
0.00 0.00 0.00 0.00 0.00 0.00 0.00 0.00 0.00 0.00 0.00 0.00 0.00 0.00 0.00 0.02 0.05 0.09 0.14 0.21 0.19 0.14 0.07 0.01 0.01 0.01 0.01 0.02 0.01 0.00 0.01 0.05 0.08
0.00 0.00 0.00 0.00 0.00 0.00 0.00 0.00 0.00 0.00 0.00 0.00 0.00 0.00 0.00 0.00 0.01 0.01 0.01 0.01 0.03 0.07 0.07 0.03 0.03 0.03 0.03 0.04 0.04 0.01 0.00 0.01 0.03
0.00 0.00 0.00 0.00 0.00 0.00 0.00 0.00 0.00 0.00 0.00 0.00 0.00 0.00 0.00 0.00 0.01 0.03 0.04 0.04 0.08 0.09 0.09 0.09 0.06 0.05 0.05 0.04 0.02 0.03 0.01 0.00 0.00
0.00 0.00 0.00 0.00 0.00 0.00 0.00 0.00 0.00 0.00 0.00 0.00 0.00 0.00 0.00 0.00 0.01 0.05 0.03 0.03 0.03 0.03 0.05 0.06 0.05 0.06 0.03 0.02 0.02 0.02 0.01 0.01 0.00
0.00 0.00 0.00 0.00 0.00 0.00 0.00 0.00 0.00 0.00 0.00 0.00 0.00 0.00 0.00 0.00 0.00 0.00 0.00 0.01 0.02 0.03 0.03 0.05 0.06 0.04 0.03 0.03 0.04 0.02 0.00 0.00 0.02
0.00 0.00 0.00 0.00 0.00 0.00 0.00 0.00 0.00 0.00 0.00 0.00 0.00 0.00 0.00 0.00 0.00 0.00 0.00 0.00 0.00 0.01 0.02 0.04 0.04 0.05 0.07 0.06 0.06 0.05 0.04 0.03 0.04
MSLP
1013.63 1013.39 1013.19 1013.12 1013.33 1013.13 1013.12 1013.11 1013.22 1013.28 1013.31 1013.47 1013.55 1013.62 1013.74 1013.88 1013.49 1013.07 1013.45 1013.81 1014.44 1014.53 1014.71 1014.93 1015.06 1015.35 1015.65 1016.00 1016.26 1016.52 1016.66 1016.91 1017.08
1013.84 1013.52 1013.27 1013.16 1013.09 1012.98 1013.11 1013.16 1013.20 1013.23 1013.23 1013.37 1013.47 1013.69 1013.78 1013.72 1013.28 1013.33 1013.59 1013.99 1014.44 1014.67 1014.85 1015.08 1015.28 1015.62 1015.84 1016.10 1016.50 1016.68 1016.89 1017.07 1017.24
1014.09 1013.73 1013.37 1013.13 1012.96 1012.91 1013.07 1013.09 1013.14 1013.10 1013.23 1013.31 1013.44 1013.68 1013.86 1013.64 1013.42 1013.54 1013.87 1014.27 1014.48 1014.72 1014.95 1015.30 1015.41 1015.67 1015.97 1016.16 1016.55 1016.85 1017.02 1017.20 1017.34
1014.08 1013.83 1013.52 1013.11 1013.04 1012.97 1012.84 1012.90 1013.10 1013.07 1013.10 1013.20 1013.49 1013.59 1013.79 1013.59 1013.23 1013.59 1014.15 1014.48 1014.54 1014.81 1015.13 1015.41 1015.61 1015.79 1015.95 1016.16 1016.46 1016.83 1017.11 1017.32 1017.46
1013.88 1013.60 1013.43 1013.36 1013.12 1012.90 1012.85 1012.70 1012.86 1012.98 1013.16 1013.14 1013.33 1013.61 1013.71 1013.82 1013.37 1013.57 1013.81 1014.30 1014.45 1014.77 1015.14 1015.41 1015.63 1015.87 1016.00 1016.19 1016.31 1016.67 1017.05 1017.31 1017.58
1013.34 1013.43 1013.42 1013.41 1013.18 1012.95 1012.80 1012.57 1012.73 1013.08 1013.04 1013.00 1013.21 1013.59 1013.61 1013.60 1013.64 1013.83 1014.09 1014.19 1014.39 1014.65 1015.02 1015.30 1015.55 1015.76 1016.03 1016.26 1016.39 1016.59 1016.92 1017.16 1017.51
1014.28 1013.77 1013.30 1013.19 1013.03 1012.87 1012.66 1012.77 1012.71 1013.26 1012.77 1012.59 1013.04 1013.27 1013.24 1013.25 1013.48 1013.81 1013.97 1014.15 1014.44 1014.61 1014.90 1015.23 1015.55 1015.72 1015.96 1016.21 1016.41 1016.58 1016.85 1017.06 1017.28
1014.33 1013.52 1013.33 1012.88 1012.79 1012.55 1012.47 1012.49 1012.92 1013.07 1012.51 1012.04 1012.20 1012.69 1013.08 1013.34 1013.51 1013.79 1013.83 1013.99 1014.49 1014.61 1014.80 1015.20 1015.46 1015.72 1015.88 1016.10 1016.29 1016.48 1016.77 1016.96 1017.19
1014.97 1014.63 1014.39 1014.01 1013.65 1012.90 1012.51 1012.47 1012.78 1012.76 1012.81 1012.35 1012.17 1012.33 1012.39 1012.87 1013.27 1013.38 1013.77 1013.86 1014.29 1014.61 1014.76 1014.99 1015.36 1015.55 1015.79 1015.90 1016.20 1016.34 1016.69 1016.96 1017.13
1015.49 1015.10 1014.89 1014.64 1014.38 1014.05 1013.46 1012.84 1012.67 1012.68 1012.55 1012.49 1012.49 1012.49 1012.69 1012.92 1013.24 1013.42 1013.76 1014.11 1014.24 1014.43 1014.71 1014.89 1015.13 1015.34 1015.61 1015.60 1015.92 1016.20 1016.50 1016.75 1016.98
1016.17 1015.80 1015.45 1015.16 1014.92 1014.66 1014.28 1013.99 1013.57 1013.13 1012.53 1012.51 1012.52 1012.69 1012.75 1013.00 1013.33 1013.49 1013.77 1013.99 1014.28 1014.55 1014.64 1014.75 1014.93 1014.99 1015.37 1015.31 1015.47 1015.83 1016.19 1016.45 1016.67
1016.74 1016.23 1016.01 1015.73 1015.11 1014.71 1014.29 1014.25 1013.77 1013.37 1013.14 1013.07 1012.79 1012.67 1012.55 1012.62 1013.30 1013.46 1012.87 1013.91 1014.27 1014.36 1014.57 1014.53 1014.98 1015.03 1015.21 1015.19 1015.24 1015.50 1015.66 1015.94 1016.18
1016.88 1016.68 1016.33 1016.13 1015.72 1015.43 1015.15 1014.78 1014.25 1014.18 1013.93 1013.27 1012.94 1012.53 1012.56 1012.81 1012.59 1012.49 1013.41 1012.44 1013.42 1014.15 1013.88 1014.29 1014.74 1014.86 1014.91 1015.10 1015.15 1015.21 1015.20 1015.41 1015.68
1016.88 1016.65 1016.60 1016.19 1015.87 1015.84 1015.71 1015.33 1015.08 1014.65 1014.02 1013.48 1013.08 1012.72 1012.53 1012.51 1012.81 1012.34 1012.83 1013.58 1013.48 1013.14 1013.43 1013.38 1014.30 1014.47 1014.55 1014.74 1015.12 1015.00 1014.77 1014.98 1015.24
1017.57 1017.26 1017.17 1016.86 1016.62 1016.52 1016.33 1016.01 1015.49 1014.91 1014.79 1014.10 1013.32 1012.83 1012.56 1012.48 1012.47 1012.50 1012.41 1012.53 1012.27 1012.35 1012.53 1013.21 1013.67 1013.86 1014.13 1014.40 1014.74 1014.65 1014.54 1014.47 1014.56
1018.63 1018.12 1017.68 1017.47 1017.32 1017.34 1017.03 1016.68 1016.15 1015.71 1015.63 1014.37 1013.21 1012.55 1012.27 1012.09 1012.01 1012.04 1012.29 1012.00 1012.21 1012.21 1012.50 1012.82 1013.09 1013.31 1013.41 1013.82 1014.06 1014.47 1014.20 1013.99 1014.04
1019.08 1018.99 1018.63 1018.40 1018.02 1017.85 1017.62 1017.61 1017.21 1016.91 1016.80 1016.25 1015.00 1013.35 1012.19 1012.36 1012.09 1012.11 1012.71 1013.57 1013.82 1013.83 1013.83 1013.95 1014.00 1013.53 1013.47 1014.04 1014.15 1014.08 1013.53 1013.48 1013.16
1019.85 1019.51 1019.36 1019.00 1018.64 1018.58 1018.43 1018.40 1018.28 1017.85 1017.48 1017.33 1017.06 1015.65 1014.66 1014.34 1012.82 1013.80 1014.28 1014.66 1014.89 1015.01 1014.92 1015.00 1015.07 1015.10 1014.61 1014.75 1014.69 1014.43 1013.92 1013.46 1012.50
1020.55 1020.22 1019.84 1019.69 1019.44 1019.32 1019.08 1018.82 1018.75 1018.70 1018.29 1017.77 1017.81 1017.61 1017.19 1016.28 1015.08 1014.34 1015.15 1015.64 1015.68 1016.15 1016.09 1016.32 1016.14 1016.04 1015.83 1015.59 1015.45 1014.37 1013.49 1012.95 1012.76
1020.78 1020.69 1020.49 1020.27 1019.96 1019.85 1019.78 1019.49 1019.18 1019.04 1019.01 1018.89 1018.59 1018.16 1017.93 1017.78 1017.35 1016.27 1015.81 1016.09 1016.80 1017.15 1017.31 1017.53 1017.09 1017.06 1016.52 1016.25 1016.00 1015.04 1013.98 1013.09 1012.69
Thickness
5668 5672 5675 5677 5676 5679 5680 5682 5683 5684 5685 5685 5686 5687 5687 5688 5692 5697 5696 5694 5691 5693 5693 5692 5693 5693 5692 5691 5693 5693 5695 5695 5696
5661 5665 5668 5670 5673 5676 5675 5677 5678 5680 5682 5682 5682 5683 5684 5686 5690 5692 5692 5690 5689 5689 5689 5688 5688 5688 5689 5688 5687 5689 5690 5692 5692
5652 5657 5662 5664 5668 5670 5670 5673 5674 5675 5677 5678 5679 5679 5680 5683 5686 5686 5686 5685 5685 5684 5684 5683 5685 5684 5685 5686 5685 5684 5686 5687 5688
5645 5649 5654 5658 5659 5661 5665 5668 5668 5671 5673 5674 5673 5674 5675 5677 5682 5681 5679 5679 5680 5680 5680 5679 5679 5680 5682 5683 5683 5682 5682 5683 5684
5637 5642 5647 5650 5653 5655 5658 5663 5663 5665 5665 5669 5669 5669 5669 5670 5676 5675 5677 5675 5675 5675 5675 5675 5674 5674 5677 5678 5680 5679 5678 5679 5679
5634 5635 5639 5641 5645 5650 5653 5657 5658 5656 5659 5663 5664 5662 5664 5665 5667 5668 5668 5669 5671 5671 5670 5670 5670 5670 5671 5672 5674 5675 5675 5675 5675
5619 5626 5632 5635 5638 5643 5648 5649 5651 5649 5654 5657 5656 5657 5659 5661 5661 5661 5663 5664 5664 5664 5665 5665 5664 5665 5666 5667 5669 5670 5670 5672 5673
5612 5620 5624 5629 5632 5636 5640 5643 5640 5640 5649 5654 5656 5654 5653 5654 5654 5654 5658 5659 5657 5658 5660 5658 5658 5659 5661 5662 5663 5665 5665 5666 5668
5602 5606 5609 5613 5617 5625 5631 5634 5633 5631 5636 5644 5648 5650 5652 5651 5650 5651 5649 5652 5651 5651 5653 5654 5654 5655 5655 5657 5657 5658 5659 5659 5661
5592 5595 5598 5601 5604 5609 5615 5622 5626 5627 5629 5634 5638 5642 5643 5643 5642 5643 5645 5642 5643 5645 5645 5647 5647 5649 5648 5652 5652 5652 5652 5653 5655
5580 5583 5587 5590 5593 5596 5601 5605 5611 5616 5624 5627 5630 5631 5632 5634 5634 5635 5636 5635 5634 5635 5636 5638 5639 5643 5642 5646 5647 5647 5647 5648 5649
5568 5572 5575 5578 5584 5587 5592 5594 5601 5609 5611 5613 5619 5622 5624 5626 5624 5627 5625 5627 5626 5628 5627 5631 5629 5631 5634 5637 5641 5642 5643 5644 5646
5561 5562 5565 5568 5572 5575 5577 5582 5588 5591 5594 5596 5605 5613 5617 5614 5618 5624 5621 5619 5618 5617 5623 5623 5621 5622 5625 5627 5631 5634 5638 5641 5642
5555 5555 5555 5558 5561 5563 5565 5570 5573 5577 5585 5591 5595 5600 5604 5605 5603 5611 5612 5605 5608 5615 5614 5619 5615 5616 5618 5619 5619 5625 5632 5634 5636
5545 5545 5545 5546 5548 5550 5551 5555 5561 5567 5570 5575 5583 5590 5595 5596 5596 5596 5598 5598 5597 5605 5606 5605 5607 5609 5610 5612 5612 5616 5622 5628 5631
5530 5533 5534 5535 5536 5535 5538 5541 5546 5552 5554 5566 5577 5582 5586 5589 5592 5593 5591 5593 5589 5593 5594 5595 5597 5600 5604 5604 5606 5605 5612 5621 5625
5518 5517 5520 5521 5523 5524 5525 5524 5528 5532 5533 5538 5550 5568 5576 5576 5580 5576 5571 5567 5568 5572 5576 5577 5579 5586 5590 5589 5593 5599 5609 5614 5622
5505 5506 5505 5507 5510 5509 5510 5510 5510 5513 5518 5519 5522 5538 5547 5543 5560 5551 5549 5549 5549 5550 5553 5558 5561 5563 5569 5571 5577 5584 5594 5602 5613
5489 5490 5492 5493 5494 5494 5496 5497 5497 5497 5500 5506 5505 5507 5509 5519 5530 5538 5529 5526 5529 5528 5530 5532 5537 5541 5547 5553 5559 5573 5584 5591 5596
5477 5475 5476 5477 5479 5480 5480 5482 5484 5484 5484 5484 5486 5492 5493 5492 5496 5508 5515 5512 5503 5502 5505 5507 5514 5518 5527 5535 5543 5553 5565 5574 5582